Location: Holyhead Bay
(53.3667°N, 4.6667°W)
Time: 19:31:27
(UTC+00:00)

Cosmos 1932 - Pass Details

Date: 24 November 2020
Orbit: 930 x 1000 km, 65.0° (Epoch: 17 January)

Event Time Altitude Azimuth Distance (km) Brightness Sun altitude
Rises 18:48:30 0° 222° (SW) 3,712 8.2 -22.8°
Reaches altitude 10° 18:51:05 10° 222° (SW) 2,766 7.5 -23.2°
Maximum altitude 18:57:37 89° 313° (NW) 1,005 4.5 -24.2°
Enters shadow 18:59:59 43° 43° (NE) 1,377 4.9 -24.6°
